Regional Weather Roundup
Issued by NWS Sterling, VA

Home | Current Version | Previous Version | Graphics & Text | Print | Product List | Glossary On
Versions: 1 2 3 4 5 6 7 8 9 10 11 12 13 14 15 16 17 18 19 20 21 22 23 24 25 26 27 28 29 30 31 32 33 34 35 36 37 38 39 40 41 42 43 44 45 46 47 48 49 50
643
ASUS41 KLWX 280210
RWRLWX

REGIONAL WEATHER ROUNDUP
NATIONAL WEATHER SERVICE BALTIMORE MD/WASHINGTON DC
1000 PM EDT TUE SEP 27 2016

Note: "FAIR" indicates few or no clouds below 12,000 feet
with no significant weather and/or obstructions to visibility.
 TC=TEMPERATURE CELSIUS

 * =Non NWS site. Station does not report precipitation (e.g. rain,
    snow, etc.), thunder, or fog.

DCZ001-MDZ009-015-VAZ040>042-051-053>054-280300-
WASHINGTON METRO

CITY           SKY/WX    TMP DP  RH WIND       PRES   REMARKS
WASHINGTON NAT PTCLDY    66  64  93 S6        29.94R
DULLES         PTCLDY    63  58  83 S5        29.94R
ANDREWS AFB    CLEAR     61  59  93 SE2       29.94R
FT BELVOIR     MOCLDY    61  59  94 CALM      29.94R
QUANTICO       CLOUDY    70  65  84 S9        29.94S
COLLEGE PARK*  CLEAR     59  59 100 CALM      29.94R
LEESBURG*      CLEAR     64  61  88 S5        29.95R
MANASSAS*      CLEAR     61  61 100 CALM      29.94R
GAITHERSBURG*  CLEAR     59  52  77 CALM      29.98R

$$

MDZ006>007-011-014-280300-
BALTIMORE METRO

CITY           SKY/WX    TMP DP  RH WIND       PRES   REMARKS
BWI AIRPORT    PTCLDY    61  57  87 CALM      29.94R
MD SCIENCE CTR   N/A     67  58  72 MISG      29.95R
MARTIN STATE   MOCLDY    63  63 100 CALM      29.96R
ANNAPOLIS      MOCLDY    69  64  84 SW5       29.94R
FORT MEADE*    CLEAR     55  55 100 CALM      29.96S

$$

MDZ012-015-019>023-280300-
MARYLAND EASTERN SHORE

CITY           SKY/WX    TMP DP  RH WIND       PRES   REMARKS
OCEAN CITY     PTCLDY    68  65  90 CALM      29.94S
SALISBURY      MOCLDY    66  65  96 CALM      29.93S
BAY BRIDGE AP* CLEAR     63  61  94 MISG      29.94S
CAMBRIDGE*     CLEAR     61  59  94 CALM      29.94R
EASTON*        PTCLDY    63  59  88 CALM      29.98S

$$

MDZ017>025-280300-
SOUTHERN MARYLAND

CITY           SKY/WX    TMP DP  RH WIND       PRES   REMARKS
PATUXENT RIVER MOCLDY    64  62  93 CALM      29.93R
ST INIGOES     MOCLDY    65  64  97 CALM      29.92S
LEONARDTOWN*   MOCLDY    63  61  94 CALM      29.96R VSB 1/2

$$

MDZ003>005-280300-
NORTH CENTRAL MARYLAND

CITY           SKY/WX    TMP DP  RH WIND       PRES   REMARKS
FREDERICK*     NOT AVBL
HAGERSTOWN APT CLEAR     66  51  58 SE6       29.93R

$$

MDZ501>502-280300-
WESTERN MARYLAND

CITY           SKY/WX    TMP DP  RH WIND       PRES   REMARKS
OAKLAND*       CLEAR     54  37  54 W3        29.98S
CUMBERLAND*    CLEAR     59  45  58 N5        29.97R

$$

VAZ025>031-280300-
SHENANDOAH VALLEY

CITY           SKY/WX    TMP DP  RH WIND       PRES   REMARKS
WINCHESTER*    CLEAR     61  55  82 CALM      29.93R
FRONT ROYAL*   FAIR      61  59  94 CALM      29.92R
LURAY*         FAIR     N/A N/A N/A CALM      29.93R
NEW MARKET*    FAIR     N/A N/A N/A CALM      29.93R
STAUNTON*      CLEAR     58  56  95 CALM      29.94S
WAYNESBORO*    FAIR      66  64  93 SE5       29.94R

$$

WVZ021-048>050-054>055-280300-
EASTERN WEST VIRGINIA PANHANDLE

CITY           SKY/WX    TMP DP  RH WIND       PRES   REMARKS
MARTINSBURG    CLEAR     59  54  83 CALM      29.92R HAZE
PETERSBURG*    CLEAR     52  44  74 CALM      29.94R

$$

VAZ036>039-050-280300-
CENTRAL FOOTHILLS

CITY           SKY/WX    TMP DP  RH WIND       PRES   REMARKS
CHARLOTTESVILL CLOUDY    68  64  87 CALM      29.93R
CULPEPER*      CLEAR     60  59  99 CALM      29.95R
ORANGE*          N/A     61  61 100 CALM      29.95R FOG
GORDONSVILLE*  NOT AVBL
WARRENTON*     FAIR      58  53  82 CALM      29.93S

$$

VAZ055>057-280300-
NORTH AND CENTRAL PIEDMONT

CITY           SKY/WX    TMP DP  RH WIND       PRES   REMARKS
FREDERICKSBRG* MOCLDY    66  66 100 SE3       29.93R
STAFFORD*      MOCLDY    62  62 100 CALM      29.97S

$$

NCZ024-NYZ072-PAZ021-071-VAZ022-071-280300-
OTHER REGIONAL OBSERVATIONS

CITY           SKY/WX    TMP DP  RH WIND       PRES   REMARKS
NEW YORK CITY  CLEAR     66  60  81 CALM      29.98R
PHILADELPHIA   PTCLDY    66  60  81 SW3       29.96R
PITTSBURGH     PTCLDY    59  42  53 S5        29.91R
ROANOKE        PTCLDY    68  61  78 CALM      29.93S
RICHMOND       FOG       68  67  96 E3        29.92S VSB 1/2
RALEIGH        CLOUDY    73  70  90 S6        29.91S

$$

ANZ530>537-280300-
MARINE OBSERVATIONS

STATION/POSITION TIME  TEMP    WIND        PRES
                       AIR SEA DIR/SP/G
                 (UTC) (F)     (DEG/KT/KT) (MB)
THOMAS PT LIGHT  0200   69 74  130/  7/  8 1015.0R
BALT KEY BRIDGE  0148   68     140/  6/  6 1013.7R
COVE POINT       0148   69     140/  5/  7 1014.1R
LEWISETTA        0142   69 74  320/  3/  3 1013.1R
SOLOMONS ISLAND  0148   70 75  190/  2/  3   N/A
PINEY POINT      0148           80/  3/  3   N/A

$$





USA.gov is the U.S. government's official web portal to all federal, state and local government web resources and services.